Back to catalog

STARLINK-35912

AliveCommunicationsVLEO
NORAD 66882·PAYLOAD·🇺🇸 United States

Launched Dec 4, 2025 from Vandenberg Space Force Base

Loading…

Next Passes (next 24 hours)

TLE

FreshSource: CelesTrak SupGP

Epoch: Sep 14, 2026, 15:55 UTC

1 66882C 25283E   26257.66368056  .00009792  00000+0  28940-3 0  2571
2 66882  53.1582 222.6708 0001359  96.3334 118.5855 15.34374570    12

Track STARLINK-35912 in real time with AllMySat

Download on the App Store